| time (UTC) | temp C | wind direction | speed KPH | gust KPH | rain 1hr cm | rain 24hr cm | rain mn cm | humidity % | barometer mb |
| 20260510143819 | 17 | 326 | 1.6 | 8.0 | 0.00 | 0.00 | 0.00 | 63 | 1019.8 |
| 20260510143332 | 17 | 110 | 3.2 | 12.9 | 0.00 | 0.00 | 0.00 | 63 | 1019.9 |
| 20260510142827 | 17 | 3 | 3.2 | 9.7 | 0.00 | 0.00 | 0.00 | 63 | 1019.9 |
| 20260510142321 | 17 | 236 | 4.8 | 9.7 | 0.00 | 0.00 | 0.00 | 64 | 1019.8 |
| 20260510141816 | 17 | 328 | 1.6 | 9.7 | 0.00 | 0.00 | 0.00 | 67 | 1019.7 |
| 20260510141331 | 17 | 293 | 4.8 | 9.7 | 0.00 | 0.00 | 0.00 | 67 | 1019.8 |
| 20260510140825 | 17 | 70 | 1.6 | 11.3 | 0.00 | 0.00 | 0.00 | 69 | 1019.8 |
| 20260510140324 | 16 | 331 | 4.8 | 11.3 | 0.00 | 0.00 | 0.00 | 68 | 1019.6 |
| 20260510135838 | 17 | 315 | 3.2 | 8.0 | 0.00 | 0.00 | 0.00 | 70 | 1019.4 |
| 20260510135331 | 17 | 224 | 1.6 | 8.0 | 0.00 | 0.00 | 0.00 | 69 | 1019.3 |
| 20260510134825 | 17 | 347 | 3.2 | 8.0 | 0.00 | 0.00 | 0.00 | 70 | 1019.2 |
| 20260510134340 | 16 | 297 | 3.2 | 11.3 | 0.00 | 0.00 | 0.00 | 71 | 1019.1 |
| 20260510133833 | 16 | 4 | 3.2 | 11.3 | 0.00 | 0.00 | 0.00 | 71 | 1018.7 |
| 20260510133325 | 16 | 62 | 3.2 | 8.0 | 0.00 | 0.00 | 0.00 | 71 | 1018.7 |
| 20260510132818 | 16 | 342 | 3.2 | 8.0 | 0.00 | 0.00 | 0.00 | 72 | 1018.6 |
| 20260510132332 | 16 | 325 | 3.2 | 9.7 | 0.00 | 0.00 | 0.00 | 73 | 1018.6 |
| 20260510131826 | 16 | 326 | 3.2 | 9.7 | 0.00 | 0.00 | 0.00 | 72 | 1018.5 |
| 20260510131325 | 16 | 344 | 1.6 | 6.4 | 0.00 | 0.00 | 0.00 | 75 | 1018.3 |
| 20260510130819 | 16 | 288 | 3.2 | 14.5 | 0.00 | 0.00 | 0.00 | 75 | 1018.2 |
| 20260510130333 | 16 | 271 | 3.2 | 14.5 | 0.00 | 0.00 | 0.00 | 75 | 1018.4 |
| 20260510125828 | 16 | 324 | 4.8 | 9.7 | 0.00 | 0.00 | 0.00 | 75 | 1018.3 |
| 20260510125323 | 16 | 219 | 4.8 | 11.3 | 0.00 | 0.00 | 0.00 | 76 | 1018.2 |
| 20260510124818 | 16 | 304 | 3.2 | 6.4 | 0.00 | 0.00 | 0.00 | 77 | 1018.3 |
| 20260510124333 | 16 | 300 | 1.6 | 8.0 | 0.00 | 0.00 | 0.00 | 77 | 1018.1 |
| 20260510123827 | 16 | 281 | 1.6 | 4.8 | 0.00 | 0.00 | 0.00 | 77 | 1017.9 |
| 20260510123322 | 16 | 309 | 0.0 | 3.2 | 0.00 | 0.00 | 0.00 | 80 | 1017.7 |
| 20260510122841 | 15 | 288 | 1.6 | 3.2 | 0.00 | 0.00 | 0.00 | 82 | 1017.6 |
| 20260510122315 | 15 | 195 | 0.0 | 1.6 | 0.00 | 0.00 | 0.00 | 84 | 1017.5 |
| 20260510121829 | 15 | 269 | 0.0 | 1.6 | 0.00 | 0.00 | 0.00 | 85 | 1017.3 |
| 20260510121344 | 14 | 34 | 0.0 | 1.6 | 0.00 | 0.00 | 0.00 | 85 | 1017.2 |
| 20260510120817 | 14 | 116 | 0.0 | 0.0 | 0.00 | 0.00 | 0.00 | 86 | 1017.2 |
| 20260510120332 | 14 | 236 | 0.0 | 4.8 | 0.00 | 0.00 | 0.00 | 86 | 1017.1 |
| 20260510115827 | 14 | 278 | 1.6 | 4.8 | 0.00 | 0.00 | 0.00 | 86 | 1016.9 |
| 20260510115340 | 14 | 284 | 0.0 | 1.6 | 0.00 | 0.00 | 0.00 | 86 | 1016.9 |
| 20260510114814 | 14 | 314 | 0.0 | 3.2 | 0.00 | 0.00 | 0.00 | 86 | 1016.9 |
| 20260510114333 | 14 | 255 | 0.0 | 3.2 | 0.00 | 0.00 | 0.00 | 86 | 1016.8 |
| 20260510113828 | 14 | 270 | 0.0 | 4.8 | 0.00 | 0.00 | 0.00 | 86 | 1016.6 |
| 20260510113322 | 14 | 210 | 1.6 | 4.8 | 0.00 | 0.00 | 0.00 | 86 | 1016.5 |
| 20260510112817 | 14 | 300 | 0.0 | 4.8 | 0.00 | 0.00 | 0.00 | 86 | 1016.4 |
| 20260510112332 | 14 | 295 | 0.0 | 8.0 | 0.00 | 0.00 | 0.00 | 86 | 1016.3 |
| 20260510111825 | 14 | 316 | 3.2 | 8.0 | 0.00 | 0.00 | 0.00 | 86 | 1016.0 |
| 20260510111320 | 14 | 254 | 1.6 | 4.8 | 0.00 | 0.00 | 0.00 | 87 | 1016.0 |
| 20260510110835 | 14 | 310 | 0.0 | 4.8 | 0.00 | 0.00 | 0.00 | 87 | 1016.0 |
| 20260510110313 | 14 | 328 | 1.6 | 4.8 | 0.00 | 0.00 | 0.00 | 87 | 1015.9 |
| 20260510105828 | 14 | 324 | 1.6 | 4.8 | 0.00 | 0.00 | 0.00 | 88 | 1016.1 |
| 20260510105322 | 13 | 307 | 0.0 | 3.2 | 0.00 | 0.00 | 0.00 | 88 | 1016.0 |
| 20260510104817 | 13 | 315 | 0.0 | 3.2 | 0.00 | 0.00 | 0.00 | 89 | 1016.0 |
| 20260510104332 | 13 | 291 | 0.0 | 0.0 | 0.00 | 0.00 | 0.00 | 88 | 1016.0 |
| 20260510103847 | 13 | 53 | 0.0 | 0.0 | 0.00 | 0.00 | 0.00 | 88 | 1016.1 |
| 20260510103321 | 13 | 55 | 0.0 | 0.0 | 0.00 | 0.00 | 0.00 | 88 | 1016.0 |
| 20260510102815 | 13 | 53 | 0.0 | 0.0 | 0.00 | 0.00 | 0.00 | 88 | 1016.0 |
| 20260510102314 | 13 | 57 | 0.0 | 0.0 | 0.00 | 0.00 | 0.00 | 88 | 1016.0 |
| 20260510101829 | 13 | 259 | 0.0 | 0.0 | 0.00 | 0.00 | 0.00 | 88 | 1015.8 |
| 20260510101324 | 14 | 259 | 0.0 | 0.0 | 0.00 | 0.00 | 0.00 | 88 | 1015.8 |
| 20260510100818 | 14 | 257 | 0.0 | 0.0 | 0.00 | 0.00 | 0.00 | 88 | 1015.8 |
| 20260510100332 | 14 | 300 | 0.0 | 0.0 | 0.00 | 0.00 | 0.00 | 88 | 1015.6 |
| 20260510095827 | 14 | 309 | 0.0 | 1.6 | 0.00 | 0.00 | 0.00 | 89 | 1015.8 |
| 20260510095321 | 14 | 307 | 0.0 | 1.6 | 0.00 | 0.00 | 0.00 | 89 | 1015.6 |
| 20260510094814 | 14 | 318 | 0.0 | 0.0 | 0.00 | 0.00 | 0.00 | 88 | 1015.5 |
| 20260510094347 | 14 | 318 | 0.0 | 0.0 | 0.00 | 0.00 | 0.00 | 88 | 1015.3 |
| 20260510093824 | 14 | 318 | 0.0 | 0.0 | 0.00 | 0.00 | 0.00 | 87 | 1015.1 |
| 20260510093318 | 14 | 318 | 0.0 | 0.0 | 0.00 | 0.00 | 0.00 | 87 | 1014.9 |
| 20260510092832 | 14 | 318 | 0.0 | 0.0 | 0.00 | 0.00 | 0.00 | 87 | 1014.8 |
| 20260510092327 | 14 | 318 | 0.0 | 0.0 | 0.00 | 0.00 | 0.00 | 87 | 1014.8 |
| 20260510091821 | 15 | 318 | 0.0 | 0.0 | 0.00 | 0.00 | 0.00 | 87 | 1014.7 |
| 20260510091316 | 14 | 318 | 0.0 | 0.0 | 0.00 | 0.00 | 0.00 | 86 | 1014.6 |
| 20260510090829 | 15 | 319 | 0.0 | 0.0 | 0.00 | 0.00 | 0.00 | 85 | 1014.6 |
| 20260510090344 | 15 | 318 | 0.0 | 0.0 | 0.00 | 0.00 | 0.00 | 85 | 1014.4 |
| 20260510085837 | 15 | 318 | 0.0 | 0.0 | 0.00 | 0.00 | 0.00 | 85 | 1014.3 |
| 20260510085315 | 15 | 318 | 0.0 | 0.0 | 0.00 | 0.00 | 0.00 | 85 | 1014.2 |
| 20260510084830 | 15 | 318 | 0.0 | 0.0 | 0.00 | 0.00 | 0.00 | 84 | 1014.1 |
| 20260510084325 | 15 | 318 | 0.0 | 0.0 | 0.00 | 0.00 | 0.00 | 83 | 1014.2 |
| 20260510083840 | 15 | 319 | 0.0 | 0.0 | 0.00 | 0.00 | 0.00 | 82 | 1014.2 |
| 20260510083314 | 15 | 319 | 0.0 | 1.6 | 0.00 | 0.00 | 0.00 | 82 | 1014.1 |
| 20260510082849 | 16 | 319 | 0.0 | 3.2 | 0.00 | 0.00 | 0.00 | 82 | 1014.3 |
| 20260510082323 | 15 | 320 | 1.6 | 3.2 | 0.00 | 0.00 | 0.00 | 83 | 1014.5 |
| 20260510081839 | 15 | 319 | 0.0 | 1.6 | 0.00 | 0.00 | 0.00 | 84 | 1014.3 |
| 20260510081333 | 15 | 319 | 0.0 | 0.0 | 0.00 | 0.00 | 0.00 | 85 | 1014.2 |
| 20260510080827 | 15 | 318 | 0.0 | 0.0 | 0.00 | 0.00 | 0.00 | 83 | 1014.2 |
| 20260510080326 | 15 | 317 | 0.0 | 0.0 | 0.00 | 0.00 | 0.00 | 82 | 1014.1 |
| 20260510075821 | 15 | 318 | 0.0 | 0.0 | 0.00 | 0.00 | 0.00 | 81 | 1014.0 |
| 20260510075315 | 15 | 318 | 0.0 | 0.0 | 0.00 | 0.00 | 0.00 | 82 | 1014.1 |
| 20260510074830 | 15 | 318 | 0.0 | 0.0 | 0.00 | 0.00 | 0.00 | 81 | 1014.0 |
| 20260510074324 | 15 | 318 | 0.0 | 0.0 | 0.00 | 0.00 | 0.00 | 81 | 1014.1 |
| 20260510073837 | 15 | 318 | 0.0 | 0.0 | 0.00 | 0.00 | 0.00 | 80 | 1014.1 |
| 20260510073330 | 16 | 317 | 0.0 | 0.0 | 0.00 | 0.00 | 0.00 | 80 | 1014.1 |
| 20260510072845 | 16 | 318 | 0.0 | 0.0 | 0.00 | 0.00 | 0.00 | 79 | 1014.1 |
| 20260510072323 | 16 | 318 | 0.0 | 0.0 | 0.00 | 0.00 | 0.00 | 79 | 1014.1 |
| 20260510071818 | 16 | 318 | 0.0 | 0.0 | 0.00 | 0.00 | 0.00 | 80 | 1014.0 |
| 20260510071332 | 16 | 317 | 0.0 | 0.0 | 0.00 | 0.00 | 0.00 | 80 | 1014.0 |
| 20260510070825 | 16 | 318 | 0.0 | 0.0 | 0.00 | 0.00 | 0.00 | 80 | 1013.8 |
| 20260510070340 | 16 | 318 | 0.0 | 0.0 | 0.00 | 0.00 | 0.00 | 80 | 1013.8 |
| 20260510065854 | 16 | 317 | 0.0 | 0.0 | 0.00 | 0.03 | 0.00 | 79 | 1013.8 |
| 20260510065329 | 16 | 317 | 0.0 | 0.0 | 0.00 | 0.03 | 0.00 | 79 | 1013.8 |
| 20260510064823 | 16 | 319 | 0.0 | 0.0 | 0.00 | 0.03 | 0.00 | 77 | 1013.8 |
| 20260510064319 | 16 | 319 | 0.0 | 0.0 | 0.00 | 0.03 | 0.00 | 78 | 1013.9 |
| 20260510063818 | 16 | 319 | 0.0 | 0.0 | 0.00 | 0.03 | 0.00 | 77 | 1013.9 |
| 20260510063333 | 16 | 319 | 0.0 | 0.0 | 0.00 | 0.03 | 0.00 | 77 | 1013.8 |
| 20260510062829 | 16 | 319 | 0.0 | 0.0 | 0.00 | 0.03 | 0.00 | 77 | 1013.6 |
| 20260510062323 | 16 | 319 | 0.0 | 0.0 | 0.00 | 0.03 | 0.00 | 77 | 1013.5 |
| 20260510061817 | 16 | 319 | 0.0 | 0.0 | 0.00 | 0.03 | 0.00 | 78 | 1013.6 |
| 20260510061332 | 16 | 319 | 0.0 | 0.0 | 0.00 | 0.03 | 0.00 | 78 | 1013.7 |
| 20260510060827 | 16 | 319 | 0.0 | 0.0 | 0.00 | 0.03 | 0.00 | 78 | 1013.7 |
| 20260510060326 | 16 | 319 | 0.0 | 0.0 | 0.00 | 0.03 | 0.00 | 78 | 1013.8 |
| 20260510055820 | 17 | 319 | 0.0 | 0.0 | 0.00 | 0.03 | 0.00 | 76 | 1013.8 |
| 20260510055315 | 17 | 319 | 0.0 | 0.0 | 0.00 | 0.03 | 0.00 | 76 | 1013.8 |
| 20260510054849 | 17 | 319 | 0.0 | 0.0 | 0.00 | 0.03 | 0.00 | 76 | 1013.8 |
| 20260510054324 | 17 | 319 | 0.0 | 0.0 | 0.00 | 0.03 | 0.00 | 73 | 1013.8 |
| 20260510053839 | 18 | 319 | 0.0 | 0.0 | 0.00 | 0.03 | 0.00 | 71 | 1013.9 |
| 20260510053332 | 18 | 319 | 0.0 | 0.0 | 0.00 | 0.03 | 0.00 | 70 | 1013.9 |
| 20260510052826 | 18 | 319 | 0.0 | 1.6 | 0.00 | 0.03 | 0.00 | 69 | 1013.9 |
| 20260510052319 | 18 | 257 | 0.0 | 0.0 | 0.00 | 0.03 | 0.00 | 70 | 1013.9 |
| 20260510051819 | 18 | 256 | 0.0 | 0.0 | 0.00 | 0.03 | 0.00 | 68 | 1013.8 |
| 20260510051313 | 18 | 256 | 0.0 | 3.2 | 0.00 | 0.03 | 0.00 | 67 | 1013.7 |
| 20260510050849 | 18 | 309 | 0.0 | 8.0 | 0.00 | 0.03 | 0.00 | 68 | 1013.7 |
| 20260510050322 | 18 | 250 | 1.6 | 11.3 | 0.00 | 0.03 | 0.00 | 68 | 1013.8 |
| 20260510045817 | 18 | 22 | 3.2 | 11.3 | 0.00 | 0.03 | 0.03 | 69 | 1013.9 |
| 20260510045332 | 18 | 334 | 0.0 | 3.2 | 0.00 | 0.03 | 0.03 | 70 | 1013.8 |
| 20260510044827 | 18 | 276 | 0.0 | 0.0 | 0.00 | 0.03 | 0.03 | 66 | 1013.4 |
| 20260510044321 | 18 | 222 | 0.0 | 0.0 | 0.00 | 0.03 | 0.03 | 66 | 1013.4 |
| 20260510043820 | 18 | 222 | 0.0 | 0.0 | 0.00 | 0.03 | 0.03 | 65 | 1013.4 |
| 20260510043315 | 18 | 222 | 0.0 | 0.0 | 0.00 | 0.03 | 0.03 | 64 | 1013.4 |
| 20260510042850 | 18 | 221 | 0.0 | 0.0 | 0.00 | 0.03 | 0.03 | 64 | 1013.3 |
| 20260510042323 | 18 | 217 | 0.0 | 0.0 | 0.00 | 0.03 | 0.03 | 66 | 1013.2 |
| 20260510041839 | 18 | 218 | 0.0 | 0.0 | 0.00 | 0.03 | 0.03 | 65 | 1013.0 |
| 20260510041332 | 18 | 217 | 0.0 | 0.0 | 0.00 | 0.03 | 0.03 | 65 | 1013.0 |
| 20260510040827 | 18 | 216 | 0.0 | 0.0 | 0.00 | 0.03 | 0.03 | 66 | 1013.0 |
| 20260510040322 | 18 | 221 | 0.0 | 0.0 | 0.00 | 0.03 | 0.03 | 69 | 1012.9 |
| 20260510035838 | 17 | 214 | 0.0 | 0.0 | 0.00 | 0.03 | 0.03 | 69 | 1012.9 |
| 20260510035315 | 17 | 214 | 0.0 | 0.0 | 0.00 | 0.03 | 0.03 | 69 | 1012.9 |
| 20260510034830 | 17 | 214 | 0.0 | 0.0 | 0.00 | 0.03 | 0.03 | 71 | 1012.8 |
| 20260510034325 | 17 | 214 | 0.0 | 0.0 | 0.00 | 0.03 | 0.03 | 72 | 1012.7 |
| 20260510033820 | 18 | 214 | 0.0 | 0.0 | 0.00 | 0.03 | 0.03 | 72 | 1012.6 |
| 20260510033354 | 18 | 214 | 0.0 | 0.0 | 0.00 | 0.03 | 0.03 | 71 | 1012.4 |
| 20260510032828 | 18 | 214 | 0.0 | 0.0 | 0.00 | 0.03 | 0.03 | 72 | 1012.3 |
| 20260510032323 | 17 | 214 | 0.0 | 0.0 | 0.00 | 0.03 | 0.03 | 71 | 1012.5 |
| 20260510031818 | 17 | 214 | 0.0 | 0.0 | 0.00 | 0.03 | 0.03 | 75 | 1012.5 |
| 20260510031317 | 17 | 214 | 0.0 | 0.0 | 0.00 | 0.03 | 0.03 | 71 | 1012.5 |
| 20260510030831 | 17 | 214 | 0.0 | 0.0 | 0.00 | 0.03 | 0.03 | 72 | 1012.5 |
| 20260510030326 | 17 | 214 | 0.0 | 0.0 | 0.00 | 0.03 | 0.03 | 71 | 1012.5 |
| 20260510025822 | 17 | 214 | 0.0 | 0.0 | 0.00 | 0.03 | 0.03 | 72 | 1012.3 |
| 20260510025316 | 17 | 214 | 0.0 | 0.0 | 0.00 | 0.03 | 0.03 | 73 | 1012.3 |
| 20260510024831 | 17 | 214 | 0.0 | 0.0 | 0.00 | 0.03 | 0.03 | 75 | 1012.2 |
| 20260510024326 | 17 | 214 | 0.0 | 0.0 | 0.00 | 0.03 | 0.03 | 76 | 1012.1 |
| 20260510023821 | 17 | 214 | 0.0 | 0.0 | 0.00 | 0.03 | 0.03 | 76 | 1011.9 |
| 20260510023340 | 17 | 214 | 0.0 | 0.0 | 0.00 | 0.03 | 0.03 | 71 | 1011.8 |
| 20260510022814 | 17 | 214 | 0.0 | 0.0 | 0.00 | 0.03 | 0.03 | 73 | 1011.7 |
| 20260510022329 | 17 | 214 | 0.0 | 0.0 | 0.00 | 0.03 | 0.03 | 73 | 1011.7 |
| 20260510021824 | 17 | 214 | 0.0 | 0.0 | 0.00 | 0.03 | 0.03 | 72 | 1011.5 |
| 20260510021320 | 17 | 214 | 0.0 | 0.0 | 0.00 | 0.03 | 0.03 | 71 | 1011.4 |
| 20260510020815 | 17 | 214 | 0.0 | 0.0 | 0.00 | 0.03 | 0.03 | 70 | 1011.2 |
| 20260510020330 | 17 | 214 | 0.0 | 0.0 | 0.00 | 0.03 | 0.03 | 69 | 1011.2 |
| 20260510015825 | 18 | 214 | 0.0 | 0.0 | 0.00 | 0.03 | 0.03 | 68 | 1011.1 |
| 20260510015324 | 18 | 214 | 0.0 | 0.0 | 0.00 | 0.03 | 0.03 | 68 | 1010.9 |
| 20260510014816 | 18 | 214 | 0.0 | 0.0 | 0.00 | 0.03 | 0.03 | 68 | 1010.8 |
| 20260510014351 | 18 | 214 | 0.0 | 0.0 | 0.00 | 0.03 | 0.03 | 67 | 1010.6 |
| 20260510013824 | 18 | 214 | 0.0 | 0.0 | 0.00 | 0.03 | 0.03 | 67 | 1010.5 |
| 20260510013320 | 19 | 214 | 0.0 | 0.0 | 0.00 | 0.03 | 0.03 | 67 | 1010.4 |
| 20260510012815 | 19 | 214 | 0.0 | 0.0 | 0.00 | 0.03 | 0.03 | 66 | 1010.4 |
| 20260510012330 | 20 | 214 | 0.0 | 0.0 | 0.00 | 0.03 | 0.03 | 64 | 1010.3 |
| 20260510011825 | 20 | 214 | 0.0 | 0.0 | 0.00 | 0.03 | 0.03 | 63 | 1010.2 |
| 20260510011345 | 20 | 214 | 0.0 | 0.0 | 0.00 | 0.03 | 0.03 | 62 | 1010.2 |
| 20260510010819 | 21 | 214 | 0.0 | 0.0 | 0.00 | 0.03 | 0.03 | 61 | 1010.2 |
| 20260510010333 | 21 | 214 | 0.0 | 0.0 | 0.00 | 0.03 | 0.03 | 58 | 1010.2 |
| 20260510005828 | 22 | 214 | 0.0 | 0.0 | 0.00 | 0.03 | 0.03 | 57 | 1010.1 |
| 20260510005323 | 22 | 214 | 0.0 | 0.0 | 0.00 | 0.03 | 0.03 | 55 | 1010.1 |
| 20260510004816 | 23 | 214 | 0.0 | 0.0 | 0.00 | 0.03 | 0.03 | 53 | 1010.0 |
| 20260510004331 | 23 | 214 | 0.0 | 0.0 | 0.00 | 0.03 | 0.03 | 53 | 1010.0 |
| 20260510003845 | 23 | 214 | 0.0 | 0.0 | 0.00 | 0.03 | 0.03 | 51 | 1010.0 |
| 20260510003322 | 24 | 214 | 0.0 | 0.0 | 0.00 | 0.03 | 0.03 | 51 | 1009.9 |
| 20260510002818 | 24 | 217 | 0.0 | 0.0 | 0.00 | 0.03 | 0.03 | 50 | 1009.9 |
| 20260510002332 | 25 | 225 | 0.0 | 0.0 | 0.00 | 0.03 | 0.03 | 48 | 1009.9 |
| 20260510001846 | 25 | 226 | 0.0 | 0.0 | 0.00 | 0.03 | 0.03 | 49 | 1009.9 |
| 20260510001319 | 25 | 221 | 0.0 | 0.0 | 0.00 | 0.03 | 0.03 | 47 | 1009.8 |
| 20260510000832 | 26 | 221 | 0.0 | 0.0 | 0.00 | 0.03 | 0.03 | 46 | 1009.8 |
| 20260510000327 | 26 | 233 | 0.0 | 0.0 | 0.00 | 0.03 | 0.03 | 45 | 1009.9 |
| 20260509235822 | 26 | 223 | 0.0 | 3.2 | 0.00 | 0.03 | 0.03 | 43 | 1009.9 |
| 20260509235317 | 26 | 185 | 0.0 | 3.2 | 0.00 | 0.03 | 0.03 | 46 | 1010.0 |
| 20260509234815 | 26 | 222 | 0.0 | 0.0 | 0.00 | 0.03 | 0.03 | 45 | 1009.9 |
| 20260509234330 | 26 | 117 | 0.0 | 1.6 | 0.00 | 0.03 | 0.03 | 45 | 1009.9 |
| 20260509233825 | 26 | 225 | 0.0 | 4.8 | 0.00 | 0.03 | 0.03 | 43 | 1010.0 |
| 20260509233320 | 26 | 221 | 0.0 | 4.8 | 0.00 | 0.03 | 0.03 | 42 | 1010.0 |
| 20260509232815 | 27 | 224 | 1.6 | 3.2 | 0.00 | 0.03 | 0.03 | 42 | 1010.0 |
| 20260509232328 | 26 | 219 | 0.0 | 0.0 | 0.00 | 0.03 | 0.03 | 45 | 1010.0 |
| 20260509231823 | 26 | 186 | 0.0 | 4.8 | 0.00 | 0.03 | 0.03 | 45 | 1010.0 |
| 20260509231318 | 26 | 195 | 0.0 | 8.0 | 0.00 | 0.03 | 0.03 | 44 | 1009.9 |
| 20260509230853 | 26 | 143 | 0.0 | 6.4 | 0.00 | 0.03 | 0.03 | 44 | 1009.9 |
| 20260509230347 | 27 | 167 | 0.0 | 8.0 | 0.00 | 0.03 | 0.03 | 42 | 1009.9 |
| 20260509225825 | 27 | 207 | 3.2 | 8.0 | 0.00 | 0.03 | 0.03 | 40 | 1010.0 |
| 20260509225319 | 27 | 143 | 0.0 | 3.2 | 0.00 | 0.03 | 0.03 | 41 | 1009.9 |
| 20260509224854 | 27 | 160 | 0.0 | 6.4 | 0.00 | 0.03 | 0.03 | 41 | 1009.9 |
| 20260509224327 | 27 | 212 | 0.0 | 6.4 | 0.00 | 0.03 | 0.03 | 40 | 1010.0 |
| 20260509223822 | 28 | 219 | 0.0 | 4.8 | 0.00 | 0.03 | 0.03 | 39 | 1009.9 |
| 20260509223336 | 27 | 222 | 0.0 | 6.4 | 0.00 | 0.03 | 0.03 | 38 | 1010.0 |
| 20260509222828 | 28 | 205 | 1.6 | 6.4 | 0.00 | 0.03 | 0.03 | 36 | 1009.9 |
| 20260509222342 | 28 | 217 | 1.6 | 4.8 | 0.00 | 0.03 | 0.03 | 36 | 1009.9 |
| 20260509221816 | 29 | 214 | 0.0 | 4.8 | 0.00 | 0.03 | 0.03 | 35 | 1009.9 |
| 20260509221315 | 29 | 290 | 1.6 | 4.8 | 0.00 | 0.03 | 0.03 | 33 | 1010.0 |
| 20260509220830 | 29 | 284 | 0.0 | 0.0 | 0.00 | 0.03 | 0.03 | 37 | 1009.9 |
| 20260509220326 | 29 | 214 | 0.0 | 4.8 | 0.00 | 0.03 | 0.03 | 35 | 1009.9 |
| 20260509215821 | 28 | 307 | 1.6 | 8.0 | 0.00 | 0.03 | 0.03 | 32 | 1009.9 |
| 20260509215315 | 28 | 223 | 3.2 | 8.0 | 0.00 | 0.03 | 0.03 | 34 | 1009.9 |
| 20260509214829 | 28 | 237 | 0.0 | 4.8 | 0.00 | 0.03 | 0.03 | 36 | 1010.0 |
| 20260509214324 | 28 | 139 | 1.6 | 4.8 | 0.00 | 0.03 | 0.03 | 39 | 1010.0 |
| 20260509213818 | 28 | 217 | 0.0 | 4.8 | 0.00 | 0.03 | 0.03 | 37 | 1010.0 |
| 20260509213317 | 28 | 297 | 0.0 | 12.9 | 0.00 | 0.03 | 0.03 | 36 | 1010.0 |
| 20260509212831 | 28 | 322 | 3.2 | 12.9 | 0.00 | 0.03 | 0.03 | 35 | 1010.0 |
| 20260509212326 | 29 | 316 | 0.0 | 6.4 | 0.00 | 0.03 | 0.03 | 37 | 1010.0 |
| 20260509211818 | 29 | 58 | 0.0 | 3.2 | 0.00 | 0.03 | 0.03 | 38 | 1010.0 |
| 20260509211332 | 29 | 229 | 0.0 | 4.8 | 0.00 | 0.03 | 0.03 | 36 | 1010.1 |
| 20260509210846 | 29 | 79 | 0.0 | 4.8 | 0.00 | 0.03 | 0.03 | 35 | 1010.1 |
| 20260509210320 | 29 | 219 | 1.6 | 4.8 | 0.00 | 0.03 | 0.03 | 37 | 1010.2 |
| 20260509205814 | 28 | 200 | 0.0 | 4.8 | 0.00 | 0.03 | 0.03 | 40 | 1010.4 |
| 20260509205329 | 28 | 334 | 1.6 | 9.7 | 0.00 | 0.03 | 0.03 | 37 | 1010.4 |
| 20260509204827 | 28 | 309 | 3.2 | 9.7 | 0.00 | 0.03 | 0.03 | 36 | 1010.4 |
| 20260509204321 | 28 | 288 | 1.6 | 4.8 | 0.00 | 0.03 | 0.03 | 39 | 1010.5 |
| 20260509203816 | 28 | 313 | 0.0 | 8.0 | 0.00 | 0.03 | 0.03 | 40 | 1010.5 |
| 20260509203332 | 28 | 214 | 4.8 | 9.7 | 0.00 | 0.03 | 0.03 | 37 | 1010.5 |
| 20260509202827 | 28 | 309 | 3.2 | 9.7 | 0.00 | 0.03 | 0.03 | 35 | 1010.5 |
| 20260509202322 | 29 | 285 | 0.0 | 3.2 | 0.00 | 0.03 | 0.03 | 39 | 1010.6 |
| 20260509201817 | 29 | 255 | 0.0 | 1.6 | 0.00 | 0.03 | 0.03 | 39 | 1010.6 |
| 20260509201352 | 28 | 213 | 0.0 | 8.0 | 0.00 | 0.03 | 0.03 | 38 | 1010.7 |
| 20260509200824 | 28 | 210 | 1.6 | 8.0 | 0.00 | 0.03 | 0.03 | 38 | 1010.7 |
| 20260509200323 | 28 | 163 | 1.6 | 6.4 | 0.00 | 0.03 | 0.03 | 35 | 1010.7 |
| 20260509195817 | 28 | 297 | 1.6 | 6.4 | 0.00 | 0.03 | 0.03 | 37 | 1010.8 |
| 20260509195331 | 28 | 221 | 0.0 | 4.8 | 0.00 | 0.03 | 0.03 | 37 | 1010.8 |
| 20260509194826 | 28 | 240 | 1.6 | 8.0 | 0.00 | 0.03 | 0.03 | 39 | 1010.8 |
| 20260509194321 | 28 | 210 | 1.6 | 8.0 | 0.00 | 0.03 | 0.03 | 38 | 1010.9 |
| 20260509193816 | 28 | 217 | 1.6 | 8.0 | 0.00 | 0.03 | 0.03 | 36 | 1010.9 |
| 20260509193331 | 28 | 219 | 3.2 | 8.0 | 0.00 | 0.03 | 0.03 | 37 | 1010.9 |
| 20260509192829 | 28 | 131 | 0.0 | 4.8 | 0.00 | 0.03 | 0.03 | 36 | 1011.0 |
| 20260509192324 | 28 | 257 | 0.0 | 8.0 | 0.00 | 0.03 | 0.03 | 37 | 1011.0 |
| 20260509191819 | 28 | 217 | 1.6 | 8.0 | 0.00 | 0.03 | 0.03 | 33 | 1011.0 |
| 20260509191314 | 28 | 218 | 0.0 | 4.8 | 0.00 | 0.03 | 0.03 | 37 | 1011.0 |
| 20260509190849 | 27 | 195 | 0.0 | 9.7 | 0.00 | 0.03 | 0.03 | 38 | 1011.0 |
| 20260509190322 | 27 | 25 | 1.6 | 9.7 | 0.00 | 0.03 | 0.03 | 45 | 1010.9 |
| 20260509185818 | 27 | 274 | 0.0 | 6.4 | 0.00 | 0.03 | 0.03 | 38 | 1011.0 |
| 20260509185353 | 27 | 330 | 0.0 | 8.0 | 0.00 | 0.03 | 0.03 | 37 | 1011.0 |
| 20260509184827 | 27 | 331 | 3.2 | 12.9 | 0.00 | 0.03 | 0.03 | 40 | 1011.1 |
| 20260509184326 | 27 | 311 | 3.2 | 12.9 | 0.00 | 0.03 | 0.03 | 36 | 1011.1 |
| 20260509183820 | 27 | 274 | 0.0 | 8.0 | 0.00 | 0.03 | 0.03 | 36 | 1011.1 |
| 20260509183314 | 27 | 203 | 1.6 | 9.7 | 0.00 | 0.03 | 0.03 | 42 | 1011.1 |
| 20260509182829 | 27 | 278 | 1.6 | 9.7 | 0.00 | 0.03 | 0.03 | 39 | 1011.2 |
| 20260509182324 | 27 | 264 | 0.0 | 14.5 | 0.00 | 0.03 | 0.03 | 40 | 1011.1 |
| 20260509181839 | 27 | 281 | 3.2 | 14.5 | 0.00 | 0.03 | 0.03 | 38 | 1011.1 |
| 20260509181332 | 27 | 186 | 0.0 | 4.8 | 0.00 | 0.03 | 0.03 | 37 | 1011.2 |
| 20260509180825 | 27 | 203 | 0.0 | 9.7 | 0.00 | 0.03 | 0.03 | 42 | 1011.2 |
| 20260509180340 | 27 | 294 | 1.6 | 12.9 | 0.00 | 0.03 | 0.03 | 45 | 1011.2 |
| 20260509175818 | 26 | 352 | 1.6 | 11.3 | 0.00 | 0.03 | 0.03 | 43 | 1011.2 |
| 20260509175313 | 26 | 289 | 3.2 | 11.3 | 0.00 | 0.03 | 0.03 | 41 | 1011.2 |
| 20260509174828 | 27 | 322 | 4.8 | 11.3 | 0.00 | 0.03 | 0.03 | 45 | 1011.3 |
| 20260509174323 | 26 | 295 | 1.6 | 8.0 | 0.00 | 0.03 | 0.03 | 44 | 1011.4 |
| 20260509173837 | 26 | 294 | 3.2 | 14.5 | 0.00 | 0.03 | 0.03 | 43 | 1011.3 |
| 20260509173331 | 26 | 329 | 8.0 | 14.5 | 0.00 | 0.03 | 0.03 | 41 | 1011.4 |
| 20260509172826 | 26 | 259 | 3.2 | 11.3 | 0.00 | 0.03 | 0.03 | 43 | 1011.6 |
| 20260509172320 | 26 | 333 | 4.8 | 12.9 | 0.00 | 0.03 | 0.03 | 43 | 1011.6 |
| 20260509171818 | 26 | 281 | 4.8 | 11.3 | 0.00 | 0.03 | 0.03 | 42 | 1011.6 |
| 20260509171333 | 26 | 58 | 3.2 | 8.0 | 0.00 | 0.03 | 0.03 | 43 | 1011.6 |
| 20260509170828 | 26 | 284 | 1.6 | 6.4 | 0.00 | 0.03 | 0.03 | 47 | 1011.5 |
| 20260509170322 | 26 | 342 | 3.2 | 6.4 | 0.00 | 0.03 | 0.03 | 47 | 1011.5 |
| 20260509165817 | 26 | 8 | 0.0 | 8.0 | 0.00 | 0.03 | 0.03 | 46 | 1011.6 |
| 20260509165332 | 25 | 332 | 4.8 | 8.0 | 0.00 | 0.03 | 0.03 | 47 | 1011.6 |
| 20260509164827 | 26 | 255 | 3.2 | 8.0 | 0.00 | 0.03 | 0.03 | 45 | 1011.7 |
| 20260509164325 | 26 | 276 | 3.2 | 4.8 | 0.00 | 0.03 | 0.03 | 44 | 1011.7 |
| 20260509163820 | 26 | 234 | 0.0 | 4.8 | 0.00 | 0.03 | 0.03 | 47 | 1011.7 |
| 20260509163315 | 25 | 281 | 0.0 | 4.8 | 0.00 | 0.03 | 0.03 | 51 | 1011.7 |
| 20260509162850 | 25 | 287 | 3.2 | 6.4 | 0.00 | 0.03 | 0.03 | 50 | 1011.8 |
| 20260509162322 | 25 | 305 | 1.6 | 8.0 | 0.00 | 0.03 | 0.03 | 49 | 1011.8 |
| 20260509161837 | 25 | 330 | 1.6 | 8.0 | 0.00 | 0.03 | 0.03 | 53 | 1011.8 |
| 20260509161331 | 25 | 311 | 0.0 | 6.4 | 0.00 | 0.03 | 0.03 | 53 | 1011.8 |
| 20260509160826 | 25 | 240 | 0.0 | 6.4 | 0.00 | 0.03 | 0.03 | 53 | 1011.8 |
| 20260509160341 | 25 | 210 | 0.0 | 6.4 | 0.00 | 0.03 | 0.03 | 55 | 1011.8 |
| 20260509155819 | 25 | 212 | 1.6 | 6.4 | 0.00 | 0.03 | 0.03 | 55 | 1011.9 |
| 20260509155314 | 25 | 280 | 0.0 | 4.8 | 0.00 | 0.03 | 0.03 | 57 | 1011.9 |
| 20260509154829 | 24 | 222 | 1.6 | 4.8 | 0.00 | 0.03 | 0.03 | 57 | 1011.9 |
| 20260509154324 | 23 | 215 | 0.0 | 3.2 | 0.00 | 0.03 | 0.03 | 61 | 1011.8 |
| 20260509153819 | 23 | 289 | 1.6 | 6.4 | 0.00 | 0.03 | 0.03 | 60 | 1011.9 |
| 20260509153314 | 23 | 212 | 1.6 | 6.4 | 0.00 | 0.03 | 0.03 | 63 | 1011.8 |
| 20260509152348 | 23 | 293 | 0.0 | 4.8 | 0.00 | 0.03 | 0.03 | 66 | 1011.7 |
| 20260509151840 | 22 | 283 | 0.0 | 4.8 | 0.00 | 0.03 | 0.03 | 64 | 1011.8 |
| 20260509151318 | 22 | 315 | 0.0 | 4.8 | 0.00 | 0.03 | 0.03 | 67 | 1011.8 |
| 20260509150832 | 22 | 287 | 0.0 | 12.9 | 0.00 | 0.03 | 0.03 | 64 | 1011.7 |
| 20260509150327 | 22 | 276 | 1.6 | 8.0 | 0.00 | 0.03 | 0.03 | 62 | 1011.7 |
| 20260509145822 | 22 | 283 | 0.0 | 4.8 | 0.00 | 0.03 | 0.03 | 66 | 1011.7 |
| 20260509145316 | 22 | 195 | 0.0 | 9.7 | 0.00 | 0.03 | 0.03 | 67 | 1011.7 |
| 20260509144831 | 21 | 297 | 0.0 | 3.2 | 0.00 | 0.03 | 0.03 | 71 | 1011.7 |
| 20260509144346 | 21 | 293 | 0.0 | 6.4 | 0.00 | 0.03 | 0.03 | 68 | 1011.8 |